This demonstration page uses our WeatherBlox Daily Observations layout. Learn more.

Left ArrowRight Arrow

34.16533, -84.80231

Hourly Observations for March 20, 2021

Temp ( °F °C ) Dew Point ( °F °C ) Humidity (%) Winds ( mph kmh ) Pressure ( in mb ) Visibility ( mi km ) Precip ( " mm )
12:53 am 00:53 Cloudy 50 10 46 7.8 86 86 Calm 30.26 1025 10 16 0.00 0.00
1:53 am 01:53 Cloudy 53 11.7 36 2.2 52 52 E 10 17 30.28 1025 10 16 0.00 0.00
3:53 am 03:53 Clear 48 8.9 34 1.1 58 58 E 8 13 30.31 1026 10 16 0.00 0.00
4:53 am 04:53 Clear 47 8.3 32 0 56 56 E 7 11 30.33 1027 10 16 0.00 0.00
5:53 am 05:53 Clear 46 7.8 29 -1.7 51 51 ENE 8 13 30.35 1028 10 16 0.00 0.00
6:53 am 06:53 Clear 45 7.2 29 -1.7 54 54 E 7 11 30.38 1029 10 16 0.00 0.00
7:53 am 07:53 Sunny 43 6.1 27 -2.8 53 53 E 5 7 30.40 1030 10 16 0.00 0.00
8:53 am 08:53 Sunny 45 7.2 27 -2.8 49 49 VRB 6 9 30.43 1031 10 16 0.00 0.00
9:53 am 09:53 Sunny 47 8.3 23 -5 39 39 E 13 20 30.44 1031 10 16 0.00 0.00
10:53 am 10:53 Sunny 49 9.4 20 -6.7 32 32 ENE 8 13 30.45 1031 10 16 0.00 0.00
11:53 am 11:53 Sunny 51 10.6 20 -6.7 29 29 NE 9 15 30.43 1031 10 16 0.00 0.00
12:53 pm 12:53 Sunny 53 11.7 18 -7.8 25 25 ENE 12 19 30.41 1030 10 16 0.00 0.00
1:53 pm 13:53 Sunny 56 13.3 21 -6.1 26 26 NNE 13 20 30.38 1029 10 16 0.00 0.00
2:53 pm 14:53 Sunny 58 14.4 19 -7.2 22 22 VRB 7 11 30.35 1028 10 16 0.00 0.00
3:53 pm 15:53 Sunny 60 15.6 20 -6.7 21 21 E 8 13 30.31 1027 10 16 0.00 0.00
4:53 pm 16:53 Sunny 62 16.7 18 -7.8 18 18 E 9 15 30.29 1026 10 16 0.00 0.00
5:53 pm 17:53 Sunny 62 16.7 17 -8.3 17 17 ENE 8 13 30.27 1025 10 16 0.00 0.00
6:53 pm 18:53 Sunny 60 15.6 17 -8.3 19 19 ENE 8 13 30.28 1025 10 16 0.00 0.00
7:53 pm 19:53 Clear 56 13.3 19 -7.2 24 24 Calm 30.29 1026 10 16 0.00 0.00
8:53 pm 20:53 Clear 48 8.9 25 -3.9 41 41 Calm 30.32 1027 10 16 0.00 0.00
9:53 pm 21:53 Clear 43 6.1 28 -2.2 56 56 Calm 30.35 1028 10 16 0.00 0.00
10:53 pm 22:53 Clear 43 6.1 27 -2.8 53 53 Calm 30.36 1028 10 16 0.00 0.00
11:53 pm 23:53 Clear 42 5.6 27 -2.8 55 55 Calm 30.36 1028 10 16 0.00 0.00

Powered by AerisWeather